Flag for U.S.A. Weather past 2 weeks in Ontario, Oregon, U.S.A.

Now
76 °F

Sunny.


Feels Like: 77 °F
Forecast: 53 / 77 °F
Wind: 5 mph from West

Location: Ontario Municipal Airport

Current Time: May 27, 2015 at 3:06:54 PM

Latest Report: May 27, 2015 at 1:53 PM


Visibility: 10 mi

Pressure: 29.95 "Hg

Humidity: 27%

Dew point: 40 °F

Location of OntarioLocation

Historic Weather in Ontario — Graph

°F

Ontario temperature yesterday

Maximum temperature yesterday: 78 °F (at 2:53 PM)
Minimum temperature yesterday: 47 °F (at 5:53 AM)
Average temperature yesterday: 63 °F

Past Weeks' High & Low Weather Summary

 TemperatureHumidityPressure
High85 °F (May 23, 4:53 PM)93% (May 18, 1:53 AM)30.05 "Hg (May 18, 1:53 AM)
Low46 °F (May 13, 5:53 AM)21% (May 24, 3:53 PM)29.56 "Hg (May 14, 7:53 PM)
Average62 °F62%29.85 "Hg
* Reported May 12 1:53 PM — May 27 1:53 PM, Ontario, Weather by CustomWeather, © 2015

Note: Actual official high and low records may vary slightly from our data, if they occured in-between our weather recording intervals... More about our weather records

Advertising

Ontario weather history for previous 24 hours

 ConditionsComfort  
Time TempWeatherWind HumidityBarometerVisibility
1:53 PM
Wed, May 27
76 °FSunny.5 mph27%29.95 "Hg10 mi
12:53 PM74 °FSunny.6 mph31%29.96 "Hg10 mi
11:53 AM72 °FSunny.N/A40%29.97 "Hg10 mi
10:53 AM69 °FSunny.5 mph45%29.98 "Hg10 mi
9:53 AM65 °FSunny.No wind56%29.99 "Hg10 mi
8:53 AM62 °FSunny.No wind62%29.99 "Hg10 mi
7:53 AM57 °FClear.3 mph78%29.98 "Hg10 mi
6:53 AM54 °FClear.No wind77%29.97 "Hg10 mi
5:53 AM56 °FOvercast.5 mph75%29.95 "Hg10 mi
4:53 AM55 °FPassing clouds.No wind80%29.95 "Hg10 mi
3:53 AM56 °FPassing clouds.No wind81%29.94 "Hg10 mi
2:53 AM54 °FPassing clouds.3 mph83%29.93 "Hg10 mi
1:53 AM55 °FPassing clouds.6 mph77%29.92 "Hg10 mi
12:53 AM61 °FClear.5 mph65%29.94 "Hg10 mi
11:53 PM
Tue, May 26
61 °FPassing clouds.6 mph70%29.92 "Hg10 mi
10:53 PM61 °FThundershowers. Overcast.8 mph67%29.90 "Hg10 mi
9:53 PM67 °FThundershowers. Partly sunny.No wind42%29.87 "Hg10 mi
8:53 PM70 °FPartly sunny.6 mph39%29.84 "Hg10 mi
7:53 PM72 °FThundershowers. Partly sunny.8 mph37%29.83 "Hg10 mi
6:53 PM75 °FSunny.8 mph32%29.83 "Hg10 mi
5:53 PM77 °FSunny.7 mph31%29.83 "Hg10 mi
4:53 PM77 °FSunny.8 mph33%29.84 "Hg10 mi
3:53 PM74 °FPassing clouds.8 mph36%29.85 "Hg10 mi
Weather by CustomWeather, © 2015

See weather overviewHow to use our weather pages